Location: Latina
(41.4670°N, 12.8670°E)
Time: 16:29:08
(UTC+02:00)

ISS - Pass Details

Date: 13 May 2021
Orbit: 417 x 422 km, 51.6° (Epoch: 18 June)

Event Time Altitude Azimuth Distance (km) Brightness Sun altitude
Exits shadow 02:03:46 13° 335° (NNW) 1,358 -0.6 -28.6°
Maximum altitude 02:04:59 15° 359° (N) 1,258 -0.6 -28.5°
Drops below altitude 10° 02:06:58 10° 35° (NE) 1,509 -0.1 -28.4°
Sets 02:09:48 0° 60° (ENE) 2,375 0.7 -28.3°
